Simultaneous Nadir Overpasses (SNOs) Predictions

Prediction of SNOs near US between AQUA and NPP Satellite Orbit:

Table of predicted SNOs near US for the next 10.0 days since TLE Epoch: 11/9/2014
Index Date (AQUA) Time (AQUA) AQUA Lat,Lon Date (NPP) Time (NPP) NPP Lat,Lon Distance(km) Time Diff (sec)
1 11/10/2014 21:04:04 49.96,-121.95 11/10/2014 20:57:39 50.03,-121.53 31.10 385
2 11/13/2014 18:15:20 43.58, -77.78 11/13/2014 18:17:07 43.31, -79.19 117.51 107
3 11/13/2014 19:51:42 34.56, -99.69 11/13/2014 19:56:00 34.19,-101.59 178.87 258
4 11/16/2014 07:45:44 20.02, -89.52 11/16/2014 07:43:42 20.01, -89.39 13.36 122
5 11/16/2014 09:16:18 49.91,-105.34 11/16/2014 09:16:38 49.93,-105.37 3.37 20
6 11/18/2014 20:14:22 49.99,-109.53 11/18/2014 20:06:54 50.11,-108.89 47.76 448




NCC Satellite Simultaneous Nadir Overpasses (SNOs) Prediction Service
